Weather History for Cleveland Burke, OH

Change the Weather History Date:

Monday, November 26, 2012

  Actual Average Record
Temperature  
Mean Temperature 38 °F -  
Max Temperature 41 °F 45 °F 66 °F (2006)
Min Temperature 36 °F 35 °F 23 °F (2005)
Degree Days  
Heating Degree Days 26    
Moisture  
Dew Point 27 °F    
Average Humidity 66    
Maximum Humidity 79    
Minimum Humidity 51    
Precipitation  
Precipitation 0.00 in - - ()
Sea Level Pressure  
Sea Level Pressure 30.15 in    
Wind  
Wind Speed 11 mph (WNW)    
Max Wind Speed 16 mph    
Max Gust Speed -    
Visibility 10 miles    
Events      
Averages and records for this station are not official NWS values.
T = Trace of Precipitation, MM = Missing Value Source: NWS Daily Summary

Daily Weather History Graph

Daily Weather History Graph

Search for Another Location

Airport:

Trip Planner

Search our weather history database for the weather conditions in past years. The results will help you decide how hot, cold, wet, or windy it might be!

Date:

Astronomy

Nov. 26, 2012 Rise Set
Actual Time 7:28 AM EST 4:59 PM EST
Civil Twilight 6:58 AM EST 5:29 PM EST
Nautical Twilight 6:24 AM EST 6:04 PM EST
Astronomical Twilight 5:50 AM EST 6:37 PM EST
Moon 3:51 PM EST (11/26) 5:37 AM EST (11/26)
Length of Visible Light 10h 31m
Length of Day
9h 30m
Waxing Gibbous, 97% of the Moon is Illuminated
Nov 26
Waxing Gibbous
Nov 28
Full
Dec 6
Last Quarter
Dec 13
New
Dec 20
First Quarter

Hourly Weather History & Observations

Time (EST) Temp. Windchill Dew Point Humidity Pressure Visibility Wind Dir Wind Speed Gust Speed Precip Events Conditions
12:53 AM 39.0 °F 30.3 °F 28.0 °F 65% 30.00 in 10.0 mi WNW 16.1 mph - N/A   Overcast
1:53 AM 39.0 °F 30.6 °F 27.0 °F 62% 30.01 in 10.0 mi West 15.0 mph - N/A   Scattered Clouds
2:53 AM 36.0 °F 29.6 °F 28.0 °F 73% 30.04 in 10.0 mi WSW 8.1 mph - N/A   Mostly Cloudy
3:11 AM 37.4 °F 28.9 °F 28.4 °F 70% 30.03 in 10.0 mi NW 13.8 mph - N/A   Overcast
3:25 AM 37.4 °F 28.5 °F 28.4 °F 70% 30.03 in 10.0 mi NW 15.0 mph - N/A   Mostly Cloudy
3:53 AM 37.9 °F 30.0 °F 27.0 °F 65% 30.06 in 10.0 mi NW 12.7 mph - N/A   Mostly Cloudy
4:53 AM 37.0 °F 28.9 °F 27.0 °F 67% 30.08 in 10.0 mi NW 12.7 mph - N/A   Overcast
5:53 AM 36.0 °F 29.6 °F 26.1 °F 67% 30.11 in 10.0 mi NW 8.1 mph - N/A   Scattered Clouds
6:53 AM 36.0 °F 28.5 °F 27.0 °F 70% 30.13 in 10.0 mi WNW 10.4 mph - N/A   Mostly Cloudy
7:53 AM 37.0 °F 30.4 °F 25.0 °F 62% 30.15 in 10.0 mi WNW 9.2 mph - N/A   Partly Cloudy
8:53 AM 36.0 °F 29.6 °F 27.0 °F 70% 30.17 in 9.0 mi SW 8.1 mph - N/A   Overcast
9:53 AM 37.9 °F 32.1 °F 28.0 °F 68% 30.18 in 10.0 mi WSW 8.1 mph - N/A   Overcast
10:53 AM 37.9 °F 32.1 °F 28.0 °F 68% 30.20 in 9.0 mi SW 8.1 mph - N/A   Overcast
11:53 AM 39.9 °F 32.9 °F 27.0 °F 60% 30.19 in 10.0 mi WSW 11.5 mph - N/A   Mostly Cloudy
12:53 PM 41.0 °F 33.9 °F 24.1 °F 51% 30.18 in 10.0 mi West 12.7 mph - N/A   Partly Cloudy
1:53 PM 41.0 °F 33.9 °F 26.1 °F 55% 30.17 in 10.0 mi West 12.7 mph - N/A   Clear
2:53 PM 39.0 °F 31.8 °F 26.1 °F 60% 30.18 in 10.0 mi West 11.5 mph - N/A   Scattered Clouds
3:53 PM 39.0 °F 32.8 °F 27.0 °F 62% 30.19 in 10.0 mi WNW 9.2 mph - N/A   Overcast
4:53 PM 39.0 °F 34.0 °F 27.0 °F 62% 30.20 in 10.0 mi WNW 6.9 mph - N/A   Overcast
5:53 PM 39.0 °F 34.8 °F 28.0 °F 65% 30.20 in 10.0 mi WNW 5.8 mph - N/A   Overcast
6:53 PM 39.0 °F 36.8 °F 28.9 °F 67% 30.21 in 10.0 mi NW 3.5 mph - N/A   Overcast
7:28 PM 39.2 °F - 28.4 °F 65% 30.20 in 10.0 mi Calm Calm - N/A   Overcast
7:53 PM 39.0 °F 35.7 °F 28.9 °F 67% 30.22 in 10.0 mi NW 4.6 mph - N/A   Overcast
8:53 PM 37.0 °F 30.4 °F 30.9 °F 79% 30.23 in 10.0 mi North 9.2 mph - N/A   Overcast
9:53 PM 37.0 °F 29.3 °F 28.0 °F 70% 30.25 in 10.0 mi North 11.5 mph - N/A   Overcast
10:53 PM 37.0 °F 29.8 °F 28.0 °F 70% 30.26 in 10.0 mi North 10.4 mph - N/A   Overcast
11:53 PM 36.0 °F 28.5 °F 26.1 °F 67% 30.28 in 10.0 mi NNW 10.4 mph - N/A   Overcast